Location: Bothwell
(42.3833°S, 147.0000°E)
Time: 08:29:33
(UTC+10:00)

UNISAT 6 - Pass Details

Date: 09 August 2024
Orbit: 589 x 662 km, 97.7° (Epoch: 14 September)

Event Time Altitude Azimuth Distance (km) Brightness Sun altitude
Rises 04:59:08 0° 170° (S) 3,040 ? -25.0°
Reaches altitude 10° 05:01:23 10° 171° (S) 2,123 ? -24.6°
Maximum altitude 05:06:02 74° 255° (WSW) 706 ? -23.7°
Enters shadow 05:06:03 74° 258° (WSW) 706 ? -23.7°
